Regional Weather Roundup
Issued by NWS

Home | Current Version | Previous Version | Graphics & Text | Print | Product List | Glossary Off
Versions: 1 2 3 4 5 6 7 8 9 10 11 12 13 14 15 16 17 18 19 20 21 22 23 24 25 26 27 28 29 30 31 32 33 34 35 36 37 38 39 40 41 42 43 44 45 46 47 48 49 50

000
ASUS43 KTOP 272259
RWRKS

WEATHER ROUNDUP FOR KANSAS
NATIONAL WEATHER SERVICE GOODLAND KS
500 PM CST FRI FEB 27 2015

NOTE:  "FAIR" INDICATES FEW OR NO CLOUDS BELOW 12,000 FEET WITH NO
SIGNIFICANT WEATHER AND/OR OBSTRUCTIONS TO VISIBILITY.

KSZ001>006-013>018-027>032-041>047-280000-
NORTHWEST KANSAS

CITY           SKY/WX    TMP DP  RH WIND       PRES   REMARKS
GOODLAND       LGT SNOW  15   9  76 S22       30.15F WCI  -3
HAYS           CLOUDY    19   0  42 SE12      30.37F WCI   7
HILL CITY      PTSUNNY   19   4  51 S12       30.35F WCI   7
RUSSELL        PTSUNNY   20   4  50 SE12      30.38F WCI   8
$$

KSZ061>065-074>080-084>089-280000-
SOUTHWEST KANSAS

CITY           SKY/WX    TMP DP  RH WIND       PRES   REMARKS
DODGE CITY     LGT SNOW  14   6  70 SE12      30.32F WCI   0
ELKHART          N/A     14   5  67 SE17        N/A  WCI  -3
GARDEN CITY    CLOUDY    13   7  77 S14       30.27F WCI  -2
GREAT BEND     CLOUDY    18   7  62 SE9       30.40F
LIBERAL        CLOUDY    16   7  67 E13       30.28F WCI   2
$$

KSZ066>073-081>083-090>101-280000-
SOUTHEAST KANSAS

CITY           SKY/WX    TMP DP  RH WIND       PRES   REMARKS
CHANUTE        LGT SNOW  19   9  65 E5        30.53F
COFFEYVILLE    LGT SNOW  20   4  50 E3        30.55R
HUTCHINSON     LGT SNOW  17  10  74 SE7       30.46F
MEDICINE LODGE   N/A     15  10  80 SE6       30.45F
NEWTON         CLOUDY    16   7  67 SE6       30.47F
PARSONS        CLOUDY    21   0  39 E3        30.54S
WICHITA INTL   LGT SNOW  16   9  74 SE7       30.48F
WICHITA JABRA  LGT SNOW  15  10  80 SE7       30.48F
WICHITA MCCONL LGT SNOW  16  10  79 E6        30.48F
WINFIELD       FLURRIES  19  10  68 E6        30.50F
$$

KSZ007>012-019>026-033>040-048>060-102>105-280000-
NORTHEAST KANSAS

CITY           SKY/WX    TMP DP  RH WIND       PRES   REMARKS
CONCORDIA      CLOUDY    19   1  45 S7        30.46F
EMPORIA        CLOUDY    17   2  51 SE6       30.50F
LAWRENCE       MOSUNNY   19  -1  41 E3        30.56F
MANHATTAN      CLOUDY    19   0  43 CALM      30.52F
OLATHE IND     PTSUNNY   19  -1  41 SE7       30.53F
OLATHE EXE     MOSUNNY   18  -1  43 SE6       30.52F
SALINA         CLOUDY    22   0  38 SE9       30.48F
TOPEKA BILLARD CLOUDY    19   0  43 E3        30.55F
TOPEKA FORBES  PTSUNNY   20   0  41 NE3       30.52F
$$



USA.gov is the U.S. government's official web portal to all federal, state and local government web resources and services.